Theta_e
354 348 345 346 346 344 348 349 351 350 351 343 342 340 325 323 324 329 325 326 336 331 326 332 336 333 329 332 334 334 332 333 331 329 329 332 331 330 329 328 328 328 329
353 351 343 345 348 347 343 348 348 350 350 350 342 334 328 322 323 331 324 327 335 328 323 322 323 329 335 334 332 331 331 331 331 331 330 331 330 329 328 328 329 327 328
358 350 349 346 349 348 341 339 346 346 345 343 344 341 329 322 321 332 323 325 327 328 323 322 323 332 333 332 334 333 332 331 331 330 331 331 328 330 329 330 329 329 327
358 354 347 354 348 345 345 347 344 342 342 340 341 340 333 323 320 331 325 328 325 323 322 322 328 333 332 333 333 332 332 332 333 332 329 330 331 328 328 327 327 326 326
356 357 356 353 352 350 353 354 353 350 346 345 345 343 337 324 320 331 329 328 326 323 326 325 329 330 331 335 333 331 329 328 328 327 327 326 325 326 325 324 326 328 328
353 354 354 359 358 358 358 358 358 357 355 352 348 346 340 326 321 332 333 331 330 329 326 333 332 336 337 335 332 331 326 325 326 328 327 327 326 325 324 325 327 326 325
351 352 354 357 359 359 359 359 359 358 357 355 353 348 342 329 324 333 337 333 331 330 329 332 331 336 333 333 328 329 326 326 327 328 327 325 326 325 324 324 323 322 321
353 356 356 359 360 361 361 360 360 359 358 356 352 346 341 335 326 338 339 334 332 333 337 334 332 333 331 329 327 328 328 326 326 327 324 321 324 325 325 324 323 318 317
358 358 361 361 364 363 361 360 359 357 356 354 350 346 341 337 337 338 337 335 334 333 332 333 333 329 329 329 329 330 329 327 326 326 327 327 327 326 324 321 318 319 320
361 359 363 364 365 362 359 360 356 356 355 351 349 345 343 342 341 341 340 338 337 338 337 334 332 330 331 330 331 329 327 327 326 327 327 326 324 322 320 321 319 320 320
363 364 364 365 363 361 360 354 353 353 351 349 346 345 343 342 342 341 339 339 338 338 337 336 336 333 330 330 328 328 328 327 327 326 324 321 319 321 322 320 320 319 320
364 365 365 363 361 359 353 347 348 349 350 347 345 344 342 342 341 341 341 340 338 336 336 337 335 332 329 328 329 327 326 326 324 322 319 319 321 321 318 318 318 317 314
363 363 362 360 355 353 354 353 351 348 347 346 343 341 341 342 343 342 340 339 338 337 333 332 328 325 329 328 328 326 326 323 320 318 320 321 319 317 316 315 314 312 310
360 359 356 353 353 353 348 347 348 346 345 343 343 342 343 342 340 338 335 333 332 330 328 327 328 328 328 327 326 323 320 320 319 319 319 317 316 315 314 312 311 309 308
356 355 355 352 351 348 348 346 345 344 342 342 342 342 341 339 337 329 329 328 327 327 328 328 328 326 325 324 324 323 322 320 319 318 318 316 315 313 312 310 308 307 309
352 352 350 349 348 347 346 345 344 341 341 342 340 338 338 335 331 329 327 326 326 326 327 329 328 326 326 326 324 322 320 319 319 317 316 315 313 312 309 308 307 308 307
339 345 347 346 343 341 340 340 339 337 337 336 336 335 332 330 327 327 327 326 326 327 327 326 323 323 323 321 321 320 319 318 316 315 314 313 311 309 307 307 307 307 307
345 343 343 344 344 342 339 336 335 332 329 331 332 329 327 327 327 327 326 325 323 321 319 320 320 320 320 320 319 318 317 316 315 313 312 311 308 307 306 306 306 306 306
343 343 342 342 340 339 336 335 333 331 330 326 327 326 326 326 326 324 322 320 320 320 320 318 317 317 317 316 316 315 314 313 312 309 307 307 307 306 306 306 305 306 306
337 338 335 334 333 333 332 332 332 331 331 329 322 323 325 325 323 320 317 318 319 317 316 314 314 313 314 313 313 313 311 308 307 307 307 306 305 305 305 305 305 306 306
334 334 333 333 331 331 332 332 331 330 330 328 326 324 323 321 320 320 320 319 318 316 315 314 313 313 312 312 310 307 306 306 306 306 305 304 304 305 305 305 305 306 306
333 330 331 332 332 331 331 330 329 329 329 328 327 325 325 323 321 321 320 319 318 317 315 314 313 312 312 310 307 305 305 305 305 305 304 304 304 305 305 305 305 305 305
334 332 329 331 331 331 330 330 330 328 327 327 326 325 325 323 320 321 319 318 317 316 315 314 312 311 309 306 303 303 304 305 304 303 303 303 304 305 305 305 305 305 305
332 331 330 330 330 326 329 328 328 327 327 325 325 324 323 322 320 320 319 318 317 316 315 313 311 309 307 305 302 302 302 303 302 300 299 300 304 305 305 304 304 304 304
328 328 330 330 329 328 328 327 327 327 326 325 325 324 323 322 320 319 319 317 316 316 315 313 311 309 307 304 301 301 301 301 300 298 296 297 304 304 304 303 303 303 304
326 326 325 325 325 325 326 325 325 325 325 325 324 323 323 321 320 319 318 317 315 315 314 313 311 309 306 304 302 300 300 299 297 296 296 298 304 304 303 302 303 303 303
Wind_Speed
44 41 41 40 40 36 35 35 35 33 29 31 28 23 20 19 19 15 14 12 11 9 12 15 16 13 12 12 9 9 9 10 13 15 15 18 20 21 22 22 22 24 22
46 43 44 41 40 40 39 39 40 37 35 36 34 29 23 24 23 16 17 19 16 13 12 11 11 9 7 8 7 7 9 11 14 18 20 18 17 20 21 25 23 23 23
45 46 45 44 42 42 41 39 41 41 40 40 39 35 31 28 27 18 19 18 18 18 15 14 12 9 11 11 13 12 15 15 15 18 20 20 23 21 22 22 21 22 25
45 46 47 46 45 44 41 40 39 42 42 43 41 37 35 32 30 21 21 21 20 20 18 17 14 14 14 14 12 13 12 14 17 18 19 21 20 20 21 24 26 29 23
46 45 46 47 45 43 42 41 39 40 42 42 40 37 38 35 33 25 22 22 21 20 20 19 18 16 14 18 16 16 16 19 25 25 25 28 27 29 30 33 25 21 20
47 47 43 43 43 44 42 40 39 39 42 41 42 38 39 37 35 26 22 24 22 21 22 23 20 20 22 22 19 19 21 22 26 28 26 24 30 29 29 29 27 29 34
47 47 45 43 43 43 41 39 40 39 38 38 36 36 36 37 34 26 24 23 24 23 22 22 21 23 27 27 22 24 27 27 30 22 21 20 25 26 26 28 30 32 36
47 45 46 45 45 42 40 39 37 35 37 36 33 33 34 34 31 26 25 22 23 22 25 24 24 28 26 27 27 27 29 29 25 22 25 23 22 23 27 30 34 34 28
44 44 43 44 43 42 39 35 33 31 32 32 29 30 30 29 26 27 25 27 24 25 30 28 27 28 29 26 28 27 30 32 25 25 18 21 22 27 28 28 23 25 28
43 43 37 39 40 39 34 32 26 27 29 26 26 25 26 25 26 25 24 25 26 26 27 27 27 27 28 27 26 27 30 27 15 15 19 21 25 29 18 21 27 31 30
37 35 34 34 33 31 27 20 20 21 20 23 22 24 25 25 25 25 26 27 26 25 24 20 21 17 19 23 23 26 23 17 17 20 24 26 19 16 19 20 16 16 22
32 33 32 31 29 26 22 20 23 19 22 22 19 20 19 18 18 20 19 20 19 18 16 15 14 18 19 17 19 18 15 16 18 22 23 15 15 16 15 20 22 25 26
32 32 32 28 25 23 23 24 21 20 21 23 21 17 14 14 16 18 19 21 20 19 20 19 18 20 19 20 17 14 17 18 18 16 12 17 17 20 22 23 20 21 23
33 29 28 30 27 23 21 20 19 15 18 19 19 16 12 11 14 11 10 9 10 14 16 18 18 14 14 15 16 13 11 11 9 10 16 16 14 18 18 19 21 23 25
32 32 31 27 23 21 21 19 15 14 16 14 15 12 11 10 11 8 9 10 11 10 10 9 8 9 11 12 12 13 12 12 10 9 14 17 18 16 18 19 20 19 21
31 27 27 26 22 21 21 22 16 12 14 15 11 10 12 11 9 7 6 6 7 6 5 8 10 11 16 15 12 11 10 10 10 11 13 16 16 17 18 18 18 18 21
24 27 26 24 20 24 20 20 19 18 15 14 14 12 7 7 6 8 7 6 7 6 9 14 12 10 11 8 11 9 8 10 11 13 14 13 14 15 15 16 17 18 19
16 17 20 23 22 16 12 13 14 17 17 17 16 12 9 8 8 7 6 5 5 5 4 4 6 8 6 5 6 6 9 10 9 9 11 12 10 13 13 15 16 18 20
22 18 17 20 19 19 17 20 11 12 10 9 13 13 11 8 7 6 6 5 4 5 5 7 5 5 8 8 7 8 10 12 12 12 10 4 10 10 12 15 15 17 19
14 16 15 16 18 17 16 14 14 17 13 6 5 9 9 8 6 5 4 3 2 4 6 5 5 8 9 10 10 10 9 6 6 7 7 8 8 10 11 14 15 17 17
11 17 14 13 14 12 12 11 11 13 15 13 10 6 4 3 3 3 4 5 3 1 4 6 7 6 6 7 7 5 4 4 5 6 6 6 8 8 13 11 15 15 15
10 11 12 11 15 13 10 8 9 10 12 15 17 16 12 6 8 9 9 8 6 6 6 6 6 5 6 8 8 6 4 4 5 6 5 5 6 8 12 9 14 14 14
12 15 11 8 15 14 15 14 10 13 8 13 17 19 19 13 9 9 11 9 8 7 7 6 6 7 7 8 7 6 7 4 7 6 5 4 5 9 9 11 13 12 14
9 7 9 8 10 9 5 8 12 10 9 10 12 13 14 13 11 11 10 9 10 10 8 8 6 6 7 10 9 4 7 12 11 10 7 3 3 8 7 10 13 8 12
8 5 3 7 9 10 7 7 9 8 11 13 13 12 14 15 13 11 11 10 12 9 10 10 8 7 11 11 8 11 13 14 14 11 9 6 1 6 10 4 10 11 10
4 5 9 6 6 9 9 8 8 10 12 13 16 15 13 11 13 14 12 13 9 11 11 11 11 9 10 10 10 14 14 12 11 9 7 4 2 5 10 4 8 9 8
Wind_Direction
223 224 223 224 228 225 221 217 223 219 217 229 236 238 229 216 219 229 223 222 230 234 220 214 227 252 231 218 234 259 260 271 279 286 282 290 283 294 300 297 294 294 294
220 223 224 225 226 230 225 222 222 225 224 229 236 243 237 223 221 237 222 214 223 237 241 234 243 229 254 266 262 275 268 263 276 280 281 285 295 300 296 295 297 295 287
212 222 223 224 226 230 234 229 227 230 233 238 240 239 238 230 222 235 224 228 223 231 236 237 233 223 236 231 245 255 268 278 280 294 293 293 296 298 300 285 297 287 299
211 217 222 223 227 231 234 236 231 235 237 241 242 241 237 234 224 231 226 229 225 233 236 234 229 225 239 250 256 268 272 278 283 288 295 299 299 306 300 298 296 298 299
209 216 219 223 227 230 230 232 233 233 239 243 244 242 237 232 227 225 225 231 232 232 233 232 233 233 241 244 252 253 267 280 278 273 279 286 289 290 292 299 301 304 284
209 216 223 220 224 226 227 224 228 229 235 242 245 243 236 232 229 233 225 231 235 239 235 230 226 234 241 248 257 262 281 295 300 290 272 285 291 295 298 296 289 291 297
208 216 219 217 223 225 226 225 225 232 235 241 244 241 236 236 231 229 229 232 235 244 241 238 236 238 246 250 258 261 279 295 306 279 275 288 289 296 295 290 296 297 291
205 214 214 214 218 220 221 225 230 232 235 238 240 237 238 239 236 228 228 230 236 237 236 240 238 242 255 259 268 271 282 294 298 271 288 290 288 293 292 293 295 299 304
210 210 208 212 210 213 220 227 229 228 231 233 237 235 234 233 235 231 237 233 234 246 240 242 242 250 259 267 268 276 284 294 290 279 283 289 283 278 286 296 299 297 297
209 205 204 205 205 214 224 225 224 222 231 233 238 239 237 238 236 238 226 238 254 252 248 243 248 259 266 269 273 277 281 290 288 276 269 276 279 290 292 291 293 279 283
201 194 194 196 201 213 217 210 203 218 229 234 233 237 236 242 249 251 248 250 256 249 244 246 253 264 270 273 273 277 278 274 274 278 282 290 300 300 300 305 295 289 289
187 184 183 190 197 200 200 191 191 203 216 233 235 236 240 237 236 245 244 246 245 244 235 240 250 276 281 284 278 273 276 281 282 285 291 299 302 298 289 283 288 291 297
173 175 179 184 181 190 193 193 208 197 203 216 216 217 217 230 234 241 248 245 242 236 240 240 252 280 276 283 273 273 287 297 296 291 294 296 279 290 293 298 305 302 304
165 170 169 168 180 193 195 201 202 197 195 201 208 203 210 222 232 235 224 216 216 223 237 257 274 284 287 285 283 296 303 305 304 292 292 303 311 299 302 307 307 310 309
166 167 167 166 174 178 173 172 181 186 194 210 214 196 189 200 209 199 207 217 228 240 253 262 273 291 308 298 282 283 284 293 288 288 279 290 287 303 306 307 312 317 319
167 163 165 171 172 167 165 166 176 187 193 192 201 186 182 193 213 212 231 256 241 232 212 223 258 279 282 263 250 257 270 290 292 263 265 275 304 303 309 316 320 320 321
164 163 168 168 174 168 175 184 176 173 179 187 175 183 193 208 227 242 248 243 244 234 241 250 260 270 267 276 275 274 276 273 268 288 304 304 301 306 310 314 320 322 322
158 152 150 147 159 160 162 176 179 173 170 188 194 207 216 215 208 211 217 218 236 264 280 258 264 264 301 280 258 253 253 257 274 282 281 279 297 305 311 317 323 323 324
138 150 164 160 159 165 168 174 153 142 174 189 193 200 195 190 186 193 206 222 184 267 280 278 276 271 264 273 272 260 266 273 279 293 313 326 307 308 315 322 322 326 326
155 170 162 156 158 159 171 169 174 160 179 211 196 211 202 192 188 222 245 151 196 227 247 260 273 272 260 262 263 266 277 298 306 302 308 302 313 313 321 323 325 328 329
177 161 156 166 160 166 173 180 186 182 181 199 201 232 157 175 182 199 218 229 229 223 270 265 253 266 269 285 292 283 274 284 284 285 286 297 311 323 327 318 331 332 330
164 170 181 187 172 179 187 189 194 195 208 205 197 215 225 203 180 215 215 213 245 264 248 266 272 245 249 235 239 246 240 261 265 265 273 299 318 333 320 337 335 337 335
222 187 168 158 169 176 201 195 214 202 198 206 204 206 206 204 197 218 222 218 229 235 245 259 263 254 258 268 263 232 226 222 242 263 275 274 334 329 336 337 339 336 340
143 154 194 204 217 239 221 220 191 179 196 208 216 218 223 200 201 217 238 222 229 244 242 249 252 249 248 255 260 242 242 234 252 256 294 259 20 326 352 339 336 338 342
232 187 153 145 149 191 213 219 227 218 214 214 226 217 193 208 210 207 229 252 229 235 236 249 244 257 270 276 219 243 247 256 269 281 281 285 85 0 313 326 338 352 349
163 165 192 191 197 221 222 211 229 218 217 234 220 224 212 223 213 227 218 225 223 232 241 241 246 239 237 268 264 246 258 269 270 271 266 225 107 349 321 27 346 356 350